GFSFLT2_700_spd_180.txt.gz
Wind_Speed
16 17 17 17 18 20 19 17 16 16 15 14 14 12 10 10 10 10 9 9 9 11 11 11 10 9 9 10 11 12 13 11
18 18 16 17 19 21 21 19 19 18 18 17 16 14 13 12 12 12 12 12 12 12 13 13 12 13 12 11 12 12 13 12
19 19 18 17 18 21 22 22 21 21 20 19 18 17 15 14 14 15 15 15 15 14 13 13 13 13 11 9 8 8 8 9
21 20 20 20 21 23 24 23 23 23 23 21 20 18 17 17 17 17 17 17 16 15 14 14 13 11 9 6 5 6 7 7
27 20 23 24 24 23 24 23 23 23 23 22 21 19 18 17 18 19 19 18 18 16 15 13 10 9 7 6 5 6 7 8
30 29 26 27 26 24 24 25 25 24 25 23 22 20 19 19 20 20 20 19 17 17 14 12 10 9 8 7 6 6 6 7
30 31 29 29 28 27 27 28 27 27 26 25 23 22 21 21 21 22 21 19 18 16 13 13 12 10 9 9 7 7 7 7
30 31 30 29 29 29 27 28 29 29 28 27 25 25 24 24 23 23 22 21 19 17 16 15 14 13 11 10 9 9 9 9
32 31 31 29 29 28 27 26 30 32 32 30 28 28 27 26 26 25 24 22 21 20 19 18 17 16 15 14 14 14 14 14
32 34 33 31 28 26 27 28 29 34 34 33 32 31 29 29 28 27 25 24 23 23 22 22 21 20 19 18 18 18 18 18
31 34 34 30 30 27 26 27 30 34 36 35 35 33 32 33 32 30 28 27 26 26 25 25 24 24 23 23 22 22 22 22
30 32 35 33 31 29 32 31 31 34 37 38 37 36 36 36 35 33 32 31 30 30 30 29 29 27 27 27 26 26 25 24
29 32 35 35 33 33 32 30 31 33 35 37 37 37 37 36 40 37 37 36 35 34 34 33 33 31 31 31 29 28 28 27
30 30 33 33 32 31 34 33 31 30 28 31 35 37 37 39 41 42 40 40 39 38 37 36 35 33 34 33 32 31 31 29
30 27 31 34 34 37 35 34 31 30 29 27 29 34 38 41 43 43 41 42 41 41 39 37 36 35 34 34 33 34 30 29
31 29 28 36 38 37 36 35 34 35 38 35 34 34 36 39 39 38 48 47 42 42 40 38 37 35 35 33 31 32 30 29
33 34 34 35 39 41 41 41 40 41 40 46 48 36 38 40 41 46 41 43 47 42 38 38 36 37 33 31 30 27 25 28
35 36 37 39 39 41 43 42 40 39 40 44 48 53 57 58 62 63 59 49 44 48 42 36 32 32 31 30 29 26 26 27
21 26 31 34 32 35 37 41 45 43 42 46 51 47 42 36 28 33 48 43 33 37 26 28 32 32 32 32 38 35 36 27
18 18 23 29 30 27 32 37 36 44 40 39 17 14 15 15 28 16 15 23 25 12 16 22 28 36 48 48 45 35 34 28

GFSFLT2_700_spd_186.txt.gz
Wind_Speed
15 15 16 17 15 15 15 15 15 15 13 12 12 11 10 9 9 10 9 9 8 8 8 8 9 9 8 7 6 6 6 8
18 17 17 18 18 17 17 18 18 17 16 15 14 13 12 12 11 11 11 11 12 11 11 12 12 11 11 11 10 8 9 16
20 22 20 20 20 19 19 19 20 20 20 18 17 17 15 14 13 13 13 14 14 15 14 15 15 15 15 14 13 13 16 23
22 24 23 23 23 21 21 20 21 22 22 21 20 20 19 18 15 16 16 16 15 15 16 15 16 16 16 16 17 17 22 20
24 26 24 25 25 23 23 22 22 23 23 22 22 23 21 21 17 18 18 18 18 16 16 16 16 16 15 16 13 16 21 14
25 25 27 26 27 26 26 24 24 24 24 23 24 24 23 23 20 20 20 19 20 19 18 19 17 18 17 13 14 20 19 12
30 25 26 27 30 28 28 25 26 24 25 24 24 26 27 26 23 22 22 22 23 21 22 20 20 20 18 17 17 23 18 14
36 32 24 25 29 33 30 27 25 25 26 25 26 28 29 27 27 25 24 24 26 23 24 20 20 21 20 20 20 23 21 15
37 36 31 25 27 35 33 29 28 26 27 27 28 30 30 30 30 29 28 28 27 25 25 22 22 20 22 22 23 25 23 20
39 42 34 28 27 33 34 31 31 28 29 29 29 32 32 31 33 31 31 32 30 28 27 26 25 25 25 25 27 27 28 24
36 41 38 30 28 30 30 33 32 32 32 29 31 32 33 32 35 35 34 34 33 31 30 30 29 30 29 30 30 29 33 28
37 40 41 32 30 28 29 35 34 35 31 30 31 30 31 33 37 39 37 37 36 33 33 34 35 34 34 36 35 34 37 33
36 41 42 33 30 30 29 34 36 34 30 30 29 29 33 35 37 39 40 39 39 38 40 39 41 40 41 39 38 38 37 37
34 41 37 33 27 30 28 34 39 31 29 31 29 29 33 34 37 39 42 42 44 45 45 43 40 41 41 40 42 41 39 40
32 36 31 27 25 30 32 34 35 34 33 32 33 34 34 35 37 39 41 43 46 48 45 37 45 41 44 46 45 45 39 41
26 29 31 30 28 30 31 33 35 34 35 36 37 37 38 37 38 38 39 43 44 47 52 51 58 56 58 52 46 46 42 41
26 26 27 31 31 32 34 35 38 39 39 40 41 39 38 37 39 40 42 42 48 49 43 48 51 42 45 51 52 40 38 40
29 28 31 31 32 34 36 38 39 42 43 44 43 42 40 40 39 41 42 43 45 40 33 36 38 40 35 41 45 44 37 41
24 26 28 30 33 36 38 40 39 39 46 49 41 44 44 43 43 44 49 26 20 18 19 17 16 23 13 22 38 48 54 53
24 24 24 27 29 31 33 37 40 41 39 36 39 44 40 45 50 30 31 42 21 14 19 21 15 19 19 24 29 33 46 53

GFSFLT2_700_spd_192.txt.gz
Wind_Speed
10 14 16 17 18 17 16 15 14 14 13 12 12 11 10 9 8 7 7 7 7 6 5 4 4 3 3 9 9 12 13 12
11 13 18 20 20 20 18 17 16 16 15 15 14 13 12 11 10 9 8 8 8 7 7 8 7 7 7 12 11 11 12 13
12 15 17 21 22 22 21 20 18 17 18 18 17 15 14 13 12 12 11 10 10 11 10 11 11 11 11 14 15 13 14 14
14 12 16 20 24 25 24 23 21 19 18 19 18 17 16 16 15 14 13 13 12 13 13 14 14 14 13 16 17 16 17 17
20 15 16 19 21 27 26 25 23 20 18 19 19 20 19 18 17 16 15 16 16 15 15 16 17 17 16 19 20 18 17 16
23 15 17 17 19 24 27 26 23 21 20 19 19 20 21 20 18 18 18 19 19 18 18 19 19 18 19 19 21 20 18 17
20 16 17 14 13 16 23 25 24 24 22 21 21 21 21 22 21 21 21 21 21 21 21 21 21 20 22 21 21 23 21 18
21 17 17 17 16 15 15 21 24 26 25 23 22 22 23 24 23 24 24 23 23 23 23 23 22 23 23 23 23 23 23 21
25 17 20 18 17 18 16 17 21 27 28 27 24 24 20 26 26 27 26 26 25 26 26 25 24 23 26 25 26 25 25 24
27 20 19 22 18 19 20 18 20 23 28 29 27 27 24 26 31 30 28 28 29 28 28 27 24 25 28 27 28 28 25 27
29 23 20 21 19 20 19 19 20 21 24 28 30 31 30 30 27 32 30 29 30 29 31 29 25 27 31 32 31 32 28 28
27 21 23 21 18 19 21 22 23 24 25 25 29 33 33 32 30 31 31 31 31 30 29 32 30 30 32 35 37 36 34 34
26 26 24 19 22 24 25 24 26 26 26 26 26 31 33 33 32 33 33 33 30 31 32 31 36 37 38 39 42 43 42 41
24 23 22 19 19 22 24 24 24 27 26 26 25 27 31 33 33 29 30 32 35 36 35 34 40 47 38 43 45 48 50 49
17 17 21 24 24 23 23 25 25 23 23 25 25 26 29 30 30 32 32 34 36 36 37 38 38 49 36 46 47 52 50 43
15 18 19 21 19 19 20 20 21 23 24 25 25 27 27 30 32 33 35 37 36 39 40 47 39 52 44 47 60 59 43 42
15 13 13 15 18 20 22 22 23 24 27 30 31 31 29 31 34 38 38 40 41 43 39 36 48 53 43 45 46 42 43 39
9 9 12 15 18 22 25 26 27 30 32 32 33 35 33 36 38 40 41 41 44 42 48 41 48 37 42 35 28 32 22 18
7 12 17 19 21 23 25 27 30 34 34 31 34 37 36 40 41 39 41 39 46 45 43 44 31 37 33 32 24 22 20 22
13 19 22 24 25 26 26 27 28 30 32 32 32 33 30 38 42 35 41 41 37 45 50 47 34 25 24 24 23 27 22 27

GFSFLT2_700_spd_198.txt.gz
Wind_Speed
17 15 12 12 16 18 18 16 14 12 11 11 10 9 8 7 6 4 3 4 4 5 6 7 8 9 10 11 11 11 11 12
17 15 12 10 16 19 20 19 17 16 14 13 13 12 11 10 9 8 6 5 5 6 8 9 9 10 11 11 12 12 11 11
17 16 14 12 12 19 21 21 21 20 18 17 15 14 13 12 11 11 10 9 8 7 8 11 11 10 11 12 13 15 15 13
16 15 17 16 9 16 22 23 23 22 20 18 16 16 15 15 14 13 12 11 11 10 10 11 12 12 11 11 11 13 14 16
13 13 14 11 7 10 17 23 24 24 23 20 18 18 18 16 16 15 14 13 14 14 14 14 14 14 13 12 13 13 14 14
13 12 13 10 8 6 7 15 21 25 25 22 19 19 19 17 16 17 16 16 16 18 18 17 18 17 15 15 15 15 14 14
14 10 10 11 10 9 7 6 14 22 26 24 21 21 17 13 19 19 19 19 19 20 22 22 22 21 20 19 18 18 18 17
16 12 10 16 12 13 10 8 7 16 23 23 22 22 18 19 22 22 24 22 23 22 23 24 25 24 23 24 23 22 21 20
14 15 11 15 11 11 16 13 7 7 14 18 20 21 21 22 22 25 25 27 26 26 26 26 26 26 26 25 26 26 26 27
13 16 14 14 13 11 16 16 13 10 9 13 17 20 22 24 25 28 27 29 29 28 29 29 28 27 27 27 26 27 33 30
17 17 16 15 14 14 17 20 18 15 13 11 13 18 21 26 28 29 30 30 31 31 31 31 31 30 29 31 30 30 33 34
22 20 19 19 17 18 19 23 23 20 15 13 13 16 20 24 27 29 31 32 32 33 32 34 33 32 32 31 31 35 34 35
29 21 18 17 17 17 19 22 23 20 16 17 15 17 18 22 24 27 30 31 31 32 34 35 35 35 34 35 34 32 33 32
20 17 19 16 18 19 16 17 19 18 17 18 17 16 17 19 21 24 24 27 30 32 33 34 37 37 38 38 41 41 34 32
18 16 17 18 19 19 19 17 16 17 17 16 18 17 17 18 19 20 22 25 29 31 35 35 37 37 38 38 44 50 44 36
15 15 16 17 17 16 19 18 16 15 14 19 18 20 21 18 20 21 24 28 31 32 30 31 33 34 37 40 42 46 51 39
13 13 13 14 13 18 20 20 19 19 18 20 23 24 23 24 23 25 28 32 34 34 33 33 35 35 37 43 43 39 42 47
13 13 12 11 9 8 12 15 18 21 21 23 22 25 27 27 28 30 32 32 34 33 37 37 38 39 38 44 41 40 37 37
13 13 11 5 1 4 9 12 15 17 16 21 24 26 30 33 31 32 33 31 31 32 32 35 37 40 38 34 41 38 35 35
12 10 7 4 7 10 9 10 13 15 18 21 25 27 30 33 37 34 33 37 35 34 34 35 37 38 36 28 37 37 37 33